Home   Weather   Germany   Potsdam   Past weeks
Flag for Germany

Past Weather in Potsdam, Brandenburg, Germany — Yesterday and Last 2 Weeks

Currently: 50 °F. Partly sunny. (Weather station: Berlin-Schoenefeld, Germany). See more current weather

Past Weather in Potsdam — Graph

°F

Potsdam Temperature Yesterday

Maximum temperature yesterday: 57 °F (at 1:20 pm)
Minimum temperature yesterday: 41 °F (at 10:20 pm)
Average temperature yesterday: 48 °F

High & Low Weather Summary for the Past Weeks

 TemperatureHumidityPressure
High64 °F (Apr 28, 4:20 pm)94% (Apr 29, 9:20 am)30.27 "Hg (Apr 29, 9:20 am)
Low28 °F (Apr 26, 5:50 am)26% (Apr 27, 3:50 pm)29.45 "Hg (May 4, 5:50 pm)
Average47 °F63%29.92 "Hg
* Reported Apr 21 2:20 pm — May 6 2:20 pm, Potsdam. Weather by CustomWeather, © 2021

Note: Actual official high and low records may vary slightly from our data, if they occured in-between our weather recording intervals... More about our weather records

Potsdam Weather History for the Previous 24 Hours

Scroll right to see more
 ConditionsComfort  
Time TempWeatherWind HumidityBarometerVisibility
2:20 pm
Thu, May 6
50 °FPartly sunny.16 mph76%29.71 "HgN/A
1:50 pm46 °FSprinkles. Partly sunny.10 mph76%29.71 "HgN/A
1:20 pm46 °FScattered clouds.8 mph82%29.74 "HgN/A
12:50 pm45 °FSprinkles. Partly sunny.16 mph76%29.74 "HgN/A
12:20 pm48 °FPartly sunny.13 mph58%29.71 "HgN/A
11:50 am48 °FPartly sunny.15 mph58%29.71 "HgN/A
11:20 am48 °FPartly sunny.16 mph58%29.71 "HgN/A
10:50 am46 °FPartly sunny.13 mph62%29.71 "HgN/A
10:20 am46 °FScattered clouds.17 mph57%29.71 "HgN/A
9:50 am46 °FScattered clouds.18 mph57%29.71 "HgN/A
9:20 am45 °FScattered clouds.18 mph66%29.71 "HgN/A
8:50 am46 °FPassing clouds.16 mph62%29.71 "HgN/A
8:20 am43 °FPassing clouds.14 mph71%29.71 "HgN/A
7:50 am43 °FSunny.13 mph71%29.74 "Hg10 mi
7:20 am41 °FSunny.13 mph76%29.71 "Hg10 mi
6:50 am39 °FSunny.12 mph75%29.71 "Hg10 mi
6:20 am37 °FSunny.14 mph81%29.71 "Hg10 mi
5:50 am37 °FSunny.13 mph81%29.71 "Hg10 mi
5:20 am37 °FClear.13 mph81%29.71 "Hg10 mi
4:50 am37 °FClear.10 mph81%29.71 "Hg10 mi
4:20 am37 °FClear.13 mph81%29.71 "Hg10 mi
3:50 am39 °FClear.14 mph75%29.71 "Hg10 mi
3:20 am41 °FClear.16 mph66%29.71 "Hg10 mi
2:50 am39 °FClear.16 mph75%29.71 "Hg10 mi
2:20 am39 °FClear.14 mph75%29.71 "Hg10 mi
1:50 am41 °FClear.15 mph76%29.68 "Hg10 mi
1:20 am41 °FClear.14 mph70%29.68 "Hg10 mi
12:50 am41 °FPassing clouds.13 mph70%29.68 "HgN/A
11:50 pm
Wed, May 5
43 °FClear.17 mph71%29.68 "Hg10 mi
11:20 pm43 °FPassing clouds.14 mph76%29.68 "HgN/A
10:50 pm41 °FClear.15 mph81%29.68 "Hg10 mi
10:20 pm41 °FClear.15 mph81%29.65 "Hg10 mi
9:50 pm43 °FClear.17 mph76%29.65 "Hg10 mi
9:20 pm43 °FClear.20 mph76%29.62 "Hg10 mi
8:50 pm45 °FPassing clouds.24 mph71%29.62 "HgN/A
8:20 pm45 °FPassing clouds.21 mph76%29.59 "HgN/A
7:50 pm45 °FPassing clouds.26 mph76%29.59 "HgN/A
7:20 pm43 °FSprinkles. Scattered clouds.24 mph81%29.59 "HgN/A
6:50 pm43 °FSprinkles. Partly sunny.28 mph81%29.59 "HgN/A
6:20 pm52 °FScattered clouds.18 mph50%29.53 "HgN/A
5:50 pm50 °FSunny.20 mph58%29.53 "Hg10 mi
5:20 pm54 °FSunny.28 mph41%29.53 "Hg10 mi
4:50 pm55 °FPassing clouds.26 mph41%29.53 "HgN/A
4:20 pm54 °FSunny.22 mph47%29.53 "Hg10 mi
3:50 pm54 °FScattered clouds.28 mph44%29.50 "HgN/A
3:20 pm50 °FSprinkles. Scattered clouds.28 mph62%29.50 "HgN/A
Weather by CustomWeather, © 2021

See weather overview